User: anonymous   Login
Location: Toronto
(43.6672°N, 79.4170°W)
Time: 12:04:01
(UTC-04:00)
Language:

ISS - Orbit

View from above orbital plane
View from above orbital plane
View from above satellite
View from above satellite

Ground track
Ground track

The orbit data is extracted from the following two-line orbital elements,

1 25544U 98067A   15148.56158971  .00005236  00000-0  83013-4 0  9996
2 25544 051.6447 182.0204 0003919 354.7718 122.4225 15.55214694944987
Epoch (UTC): 28 May 2015 13:28:41
Eccentricity: 0.0003919
inclination: 51.6447°
perigee height: 399 km
apogee height: 404 km
right ascension of ascending node: 182.0204°
argument of perigee: 354.7718°
revolutions per day: 15.55214694
mean anomaly at epoch: 122.4225°
orbit number at epoch: 94498

The dashed part of the orbit path shows where the satellite is in the earth's shadow,  

DLR